sat.trackr.live / text

‹ back to catalog

STARLINK-4727

NORAD 53803 · 2022-111AG

PAYLOAD ACTIVE UNKNOWN

§ Identity

Operator
Country
US
Launch date
2022-09-11
Launch site
AFETR
Launch vehicle
Mass (kg)
RCS (m²)

Purposes: comms

External: N2YO · Heavens-Above · Gunter

§ Orbital elements

Epoch: 2026-09-20T22:11:49.096320Z

Period
93.85 min
Inclination
53.1614°
Eccentricity
0.0001129
Mean motion
15.34391761 rev/d
Perigee alt
462.0 km
Apogee alt
463.5 km
Semi-major
6,840.9 km
B*
2.4057e-5
RAAN
83.3947°
Arg perigee
84.2933°
Mean anomaly
275.8199°
Rev number
22,362

§ Raw data

STARLINK-47271 53803U 22111AG  26263.92487380  .00000437  00000+0  24057-4 0  99912 53803  53.1614  83.3947 0001129  84.2933 275.8199 15.34391761223623

JSON: /api/v1/satellites/53803 · /tle

For live sub-satellite position, see the globe view (requires WebGL).

§ Visibility from observer

Set your observer location to see the next 7 days of passes ≥ 10°. The values pass through the URL so the page stays shareable.

No JS? Fill the form by hand. The geolocation button needs JavaScript.